Theta_e
364 364 365 364 364 364 362 360 361 360 363 362 363 363 362 361 362 361 362 363 362 362 363 362 363 362 361 360 361 362 362 362 361 360 358 359 363 362 360 360 360 359 358 358 358 359 359 358 358 358 356 355 355 356 357 355 354 354 355 355 355 355 355 355 356 356 356 356 356 355 355 354 354 353 354 354 354 355 354 353 353 353 353 353 353
363 364 363 364 365 365 364 361 359 360 361 362 362 362 361 361 362 363 362 362 362 363 362 360 359 359 361 361 360 362 363 362 362 361 361 360 362 363 360 360 359 359 359 358 358 359 358 358 357 357 357 357 357 357 357 356 355 356 356 355 356 355 355 355 355 356 356 356 356 356 355 355 354 354 354 354 354 354 355 354 353 353 354 354 353
365 365 365 364 365 366 363 362 358 358 361 362 364 364 362 363 364 361 362 363 361 362 361 358 358 359 360 360 360 362 361 363 361 361 358 360 361 363 367 359 359 360 359 359 358 359 358 358 357 357 357 357 358 358 358 358 357 356 356 355 356 356 355 354 355 355 355 356 356 356 356 356 355 355 355 354 354 354 354 354 354 354 354 354 354
368 368 366 365 365 363 362 361 360 361 363 362 364 366 364 364 365 367 366 364 362 359 358 354 354 354 359 358 360 361 360 360 358 358 360 361 361 362 364 365 359 359 359 360 360 358 358 358 358 357 357 357 358 358 358 358 357 357 356 356 356 356 356 356 355 355 355 355 355 356 356 356 356 356 356 356 356 355 355 355 355 354 354 354 354
368 369 366 365 365 366 363 361 364 365 365 366 366 365 364 362 363 366 363 362 357 355 356 353 351 355 356 356 359 358 360 361 360 359 358 361 360 359 362 362 360 358 359 359 360 360 359 359 358 357 357 358 358 357 357 358 359 358 357 356 356 356 356 356 356 356 355 355 355 356 356 357 356 356 356 356 356 356 356 356 355 355 355 355 354
370 369 367 366 366 366 364 361 363 366 366 366 362 361 360 360 360 361 358 358 354 353 350 349 345 348 349 350 352 357 358 358 356 356 358 358 359 362 360 360 361 361 362 358 359 360 361 360 359 357 357 357 356 357 357 358 358 358 357 356 356 357 357 357 356 356 356 356 355 355 355 356 356 356 356 356 356 356 357 357 356 356 355 355 355
372 370 367 367 365 362 362 363 366 366 362 363 363 364 363 362 360 358 359 352 349 350 349 347 344 347 349 349 349 350 353 354 357 358 359 362 362 361 361 360 360 363 363 361 358 360 360 360 358 357 355 354 356 357 357 357 358 357 357 356 357 357 357 357 356 356 356 356 356 355 355 355 356 356 357 356 356 356 356 357 357 357 356 356 356
373 370 367 367 364 364 363 366 366 365 364 363 364 361 362 361 360 357 348 347 348 346 347 347 347 346 348 348 348 350 351 352 355 357 359 362 360 361 362 362 362 361 362 362 360 361 358 359 359 358 357 357 357 357 357 357 357 357 356 356 357 357 357 357 356 356 356 356 356 356 356 355 354 354 354 355 356 356 356 357 357 357 357 357 356
373 371 369 368 365 366 363 365 366 364 364 365 357 357 361 352 353 352 351 348 344 343 345 347 346 347 348 347 348 349 348 352 353 355 357 358 359 359 360 361 363 358 362 360 363 362 359 359 359 359 359 358 357 356 357 357 357 357 356 357 358 358 357 356 356 355 355 354 353 354 355 356 356 355 355 355 355 356 357 356 357 357 357 357 357
372 371 369 368 365 364 363 365 365 362 358 357 355 355 354 351 351 352 351 350 344 344 346 346 347 347 347 344 347 346 347 350 352 353 352 354 358 359 360 362 361 360 360 362 360 362 360 360 359 358 358 357 356 356 356 356 357 356 356 356 357 357 356 356 354 351 351 352 351 351 350 353 353 354 355 355 355 356 356 356 357 357 358 357 358
371 369 369 366 364 365 363 363 359 359 357 354 353 353 352 352 350 350 352 352 349 349 348 348 348 346 345 345 347 351 351 349 352 350 351 349 356 357 361 361 361 360 361 360 358 360 361 361 359 363 361 356 357 357 357 357 356 356 356 356 356 355 354 352 350 351 350 351 350 351 350 352 354 355 356 356 355 356 357 356 356 357 358 358 358
371 371 368 365 362 360 359 359 357 356 353 351 350 347 351 349 349 347 350 350 350 350 349 348 347 346 345 346 348 349 351 349 350 348 351 351 356 358 355 357 359 358 357 358 358 357 360 362 361 360 360 359 357 357 356 357 357 357 357 356 355 352 351 351 351 352 353 353 351 352 353 354 355 356 356 356 355 356 357 357 357 357 357 358 358
370 368 364 363 363 358 358 358 355 354 353 351 352 351 352 351 349 352 349 348 347 349 349 349 346 341 345 344 346 349 349 349 347 346 345 346 348 352 354 354 355 356 356 357 357 356 356 359 360 361 360 362 360 356 356 356 356 356 356 355 353 352 349 351 352 352 352 352 352 351 351 352 353 355 356 356 356 355 356 356 356 357 357 357 357
369 368 366 362 359 356 357 355 354 354 353 354 353 351 351 351 350 347 350 346 346 347 347 347 341 338 337 339 341 345 347 345 342 343 344 346 347 348 349 345 344 346 349 355 355 352 352 355 359 358 359 360 359 357 357 357 354 353 353 351 349 350 351 351 352 352 353 353 353 352 352 352 352 353 354 355 355 355 355 355 356 356 357 357 357
367 367 361 360 358 356 356 355 355 354 353 350 351 350 350 348 349 346 344 347 345 348 347 348 339 341 342 340 333 334 341 344 342 341 342 343 343 342 342 341 342 345 347 347 346 350 349 352 354 354 357 356 357 356 357 355 353 351 351 350 349 348 350 351 353 353 353 354 354 354 354 354 353 352 353 353 353 353 354 355 356 356 356 356 356
363 362 360 360 358 357 356 355 355 355 351 347 348 349 349 349 349 348 347 342 342 343 348 347 344 342 333 333 335 333 332 334 337 341 341 340 340 340 341 341 342 345 344 343 344 347 348 351 350 350 351 353 355 354 355 355 351 350 350 351 350 350 351 352 353 353 353 354 355 354 353 353 353 354 354 354 353 353 354 355 356 356 356 356 356
362 361 360 360 359 358 356 356 355 354 349 347 348 347 350 349 349 348 346 342 338 341 344 346 345 347 340 335 332 331 328 332 334 338 338 338 338 339 339 337 338 343 341 342 346 346 346 347 349 349 350 350 351 351 353 353 354 353 351 347 346 347 348 350 352 353 353 354 355 355 354 354 354 354 355 355 354 353 353 354 356 356 356 356 356
363 362 360 359 359 358 358 356 353 350 347 347 350 348 349 350 348 348 346 346 344 339 340 346 345 347 347 343 340 333 332 335 334 329 341 338 339 337 336 334 338 338 340 341 340 342 343 343 346 346 346 347 346 346 346 344 346 349 344 343 342 341 342 342 344 347 349 351 353 353 354 354 354 355 354 354 354 354 354 354 355 356 356 356 357
361 361 361 360 360 359 358 354 350 349 349 350 348 349 349 349 349 348 347 348 345 340 338 338 343 344 344 342 343 342 341 336 331 333 329 335 336 333 331 334 335 335 337 336 337 340 341 342 340 342 341 343 341 342 343 342 341 344 341 340 340 340 340 340 341 342 344 345 346 347 349 352 353 354 354 354 355 355 355 355 355 356 356 356 357
361 362 360 358 357 355 356 350 348 348 349 349 350 349 350 350 350 349 349 347 346 342 340 339 337 338 343 341 340 342 342 340 340 335 332 329 331 333 333 332 333 330 330 332 334 335 339 339 337 338 339 339 338 338 340 340 341 342 339 338 338 338 337 337 338 340 341 342 342 343 343 345 347 350 352 354 355 354 355 355 355 355 356 356 357
361 360 359 356 356 354 353 350 348 350 350 350 349 350 351 350 349 348 347 347 346 345 343 340 340 338 339 339 339 338 338 339 339 338 332 330 328 327 330 332 332 329 330 331 332 334 335 335 335 336 338 338 339 338 337 338 338 339 337 338 337 337 336 335 337 338 339 339 340 340 341 342 343 345 347 350 352 354 354 354 355 354 353 353 353
361 359 358 356 355 352 350 349 350 349 350 350 350 350 350 350 350 348 348 346 346 345 343 342 342 342 340 339 337 336 337 336 334 335 334 334 328 327 330 329 328 328 331 328 331 329 330 333 334 331 334 337 338 337 338 339 339 336 337 337 336 336 335 335 335 336 336 337 337 339 339 340 341 342 343 345 347 349 352 352 352 353 354 353 353
356 358 356 355 352 350 347 348 350 351 350 350 350 347 346 347 349 349 348 347 345 345 344 344 344 342 340 339 337 336 335 333 333 333 333 330 328 327 328 328 328 329 332 332 333 332 331 333 334 331 337 337 337 338 338 339 336 338 337 335 336 336 335 334 334 334 334 334 336 337 338 339 340 341 342 343 343 344 347 349 351 351 353 354 354
355 353 352 350 350 349 349 349 350 351 350 351 351 348 347 348 348 348 348 347 347 346 345 342 342 342 340 339 339 339 339 336 335 336 333 331 331 329 329 331 331 331 333 336 335 333 333 334 333 335 335 336 339 339 340 341 340 337 336 335 336 336 335 334 334 334 334 334 334 335 336 337 338 339 340 340 342 343 343 345 347 350 352 352 353
354 351 351 350 350 351 350 348 350 351 350 349 348 349 348 347 348 348 347 347 345 345 343 343 342 340 339 341 340 340 339 339 339 337 336 335 333 329 328 330 328 329 332 333 331 334 333 333 336 334 335 338 339 342 342 340 339 338 336 338 338 338 336 335 334 334 334 333 334 334 335 336 336 336 337 338 339 340 341 343 344 346 349 351 352
353 350 350 349 350 351 352 351 352 352 351 351 350 350 350 348 348 348 346 347 347 346 344 343 343 343 343 340 340 339 339 340 339 338 335 334 332 330 330 330 332 328 332 333 334 329 331 334 334 337 335 337 337 340 341 339 340 338 336 337 339 339 338 336 335 334 333 333 333 334 335 335 335 336 336 336 337 337 339 340 342 344 345 347 349
351 353 352 351 350 351 352 350 350 351 351 350 351 351 351 350 349 350 348 347 347 346 344 344 342 342 343 342 340 340 339 340 338 339 338 336 334 333 331 327 325 325 327 331 331 332 328 333 334 335 339 340 339 340 341 341 341 337 338 341 340 339 337 337 336 333 333 333 334 334 334 334 334 334 335 335 336 337 337 338 339 341 343 344 346
354 354 352 351 350 350 352 350 351 350 351 351 352 350 351 349 349 348 347 347 346 346 345 345 343 343 342 343 342 338 340 340 340 339 338 339 338 337 334 332 326 323 325 324 326 328 331 330 333 336 337 338 339 340 339 339 340 338 340 342 339 339 339 336 335 334 333 334 334 334 333 333 334 334 334 334 335 335 336 337 337 338 339 341 343
355 355 354 352 352 351 351 349 350 351 351 352 350 350 351 349 347 348 346 345 346 346 344 345 344 342 342 341 340 340 341 343 342 341 341 342 340 338 338 333 331 326 323 323 324 323 329 329 327 333 338 339 340 340 340 340 340 339 339 340 340 340 336 332 333 333 333 334 334 333 333 333 333 334 333 333 333 334 334 335 335 336 337 338 340
355 354 353 352 351 351 350 349 349 350 349 350 349 349 350 347 348 348 347 347 345 346 345 344 343 343 342 341 341 339 341 342 341 343 342 342 340 340 339 338 336 330 327 324 324 328 327 331 330 330 336 337 338 339 340 340 342 341 341 340 340 340 334 333 333 333 333 333 332 331 332 332 332 333 332 331 332 332 333 334 335 336 336 337 339
355 354 352 351 350 350 350 349 348 349 349 348 349 349 350 347 346 345 346 346 345 343 345 344 342 342 342 340 341 339 341 340 341 341 345 346 343 340 339 339 339 335 332 328 324 329 332 329 332 335 336 339 338 339 339 340 341 339 341 341 342 340 338 338 335 334 333 332 331 330 330 329 329 330 330 330 331 332 333 333 334 335 335 336 337
353 353 350 348 349 349 348 346 345 347 347 346 347 348 348 346 345 343 344 346 344 344 342 342 341 342 341 340 341 340 341 341 342 341 341 346 347 344 343 339 338 337 336 331 327 327 332 330 332 335 339 339 339 337 338 338 340 339 341 340 342 340 341 341 339 335 333 331 331 330 328 327 328 329 330 330 331 332 332 333 333 333 334 335 336
352 350 349 348 350 349 347 347 345 346 347 346 346 346 346 346 345 346 345 345 344 343 343 342 341 341 341 340 341 341 342 341 341 340 337 337 339 338 337 336 333 335 334 332 328 329 332 334 333 333 336 338 335 338 336 337 338 339 338 339 340 339 339 339 338 335 333 331 329 329 328 328 328 328 329 330 330 331 332 333 333 332 333 333 333
352 347 348 348 349 348 346 345 346 346 346 347 345 345 345 344 345 344 343 343 343 343 342 342 341 340 341 341 340 340 342 342 342 341 338 335 336 334 334 333 332 333 335 332 330 329 329 333 331 335 334 335 333 338 335 335 336 337 335 336 337 338 339 339 338 338 333 332 329 327 327 327 327 327 328 328 329 330 330 330 329 329 329 329 329
351 348 347 348 349 350 348 345 346 347 347 348 346 345 344 344 344 343 342 343 343 342 341 341 341 341 340 340 339 340 340 339 339 340 340 339 337 336 335 335 334 334 335 335 332 330 330 330 332 331 332 333 332 334 336 335 337 335 334 334 334 335 338 338 338 338 335 332 329 328 327 326 327 327 327 328 327 327 327 326 326 326 325 325 326
349 349 348 349 349 350 348 346 346 347 347 347 346 345 346 346 344 343 344 344 343 342 341 341 340 340 340 340 339 339 339 339 339 339 339 338 338 337 336 336 336 335 335 335 335 332 331 329 332 331 331 332 330 333 335 336 333 332 333 333 334 334 335 336 337 336 335 331 330 328 328 327 326 326 325 325 324 324 323 322 323 324 324 324 324
349 350 350 350 349 349 346 345 345 345 345 346 345 344 345 345 345 344 344 345 344 343 342 342 341 341 340 340 339 339 340 338 338 338 338 338 337 336 335 335 334 334 333 334 333 333 331 329 331 333 333 332 331 332 334 331 331 332 333 332 332 332 333 334 333 334 333 331 331 329 328 327 327 326 325 325 325 325 324 323 323 323 323 323 323
346 346 348 348 348 348 347 345 345 345 345 346 345 345 344 344 345 345 344 344 343 344 343 342 342 342 341 341 340 340 339 338 338 339 339 337 337 336 336 336 335 334 334 333 333 332 331 330 330 329 333 330 329 330 333 332 330 328 329 330 331 332 332 332 332 333 335 335 336 336 332 332 330 327 326 326 326 325 324 323 322 321 321 320 318
344 344 345 346 347 347 347 346 344 344 345 345 346 347 346 345 345 345 344 343 344 344 344 342 341 340 340 341 341 341 340 340 339 340 340 339 337 337 337 336 336 335 333 333 331 330 330 329 329 330 329 331 331 328 331 333 332 330 329 328 327 330 331 330 330 331 333 332 333 332 332 332 330 331 326 324 325 324 324 323 322 321 320 319 317
344 343 343 345 346 346 346 347 346 345 345 345 347 347 345 345 345 345 346 345 343 342 343 343 341 339 340 340 340 341 341 341 340 340 341 340 338 337 337 336 335 334 332 333 331 329 328 327 326 326 328 329 330 331 332 332 329 329 329 327 325 326 327 331 331 330 332 332 332 332 331 330 330 329 326 325 325 325 324 325 325 325 323 321 319
344 342 342 343 345 347 347 347 346 345 344 345 345 344 345 346 346 345 345 345 344 342 341 340 340 341 340 339 339 339 339 342 341 339 339 338 340 337 337 337 336 335 334 333 330 329 328 327 327 328 327 327 328 328 326 326 325 325 328 329 327 328 329 328 330 332 332 330 331 332 332 331 329 330 331 332 333 333 333 330 331 331 327 322 321
346 346 345 343 343 346 346 346 346 345 345 345 341 335 338 345 346 346 345 344 344 342 341 340 339 339 339 339 339 342 342 343 340 335 329 328 328 336 339 338 336 334 333 333 332 330 328 326 325 325 324 324 324 327 326 327 329 329 328 328 325 327 327 326 328 330 331 330 328 329 331 333 330 330 330 329 330 333 332 333 333 331 328 324 323
347 348 347 345 343 345 345 344 344 344 344 344 335 330 330 332 342 343 343 343 344 343 341 340 340 339 338 338 340 341 343 339 342 332 329 326 325 323 322 324 331 339 335 332 332 330 327 326 326 326 324 325 326 328 328 327 328 327 327 327 326 326 324 321 320 327 333 331 330 328 329 333 333 329 330 330 330 330 331 331 330 329 326 324 323
349 349 347 347 347 346 345 343 343 344 344 338 329 328 329 328 331 343 341 340 341 341 341 340 339 339 339 338 337 338 339 340 340 343 337 328 324 324 322 321 321 321 324 334 333 331 330 327 325 326 326 326 326 328 327 327 327 327 328 328 328 326 325 323 322 321 329 333 328 326 326 332 332 330 328 329 329 330 329 327 326 326 325 324 323
349 349 347 347 349 348 346 345 343 343 344 335 326 326 326 325 325 332 340 339 339 340 340 340 340 339 339 338 338 337 338 342 340 340 339 341 330 322 323 323 323 321 321 319 320 334 333 330 327 327 327 327 327 328 330 330 331 327 327 326 328 327 325 323 323 323 328 333 330 326 324 327 328 326 325 328 328 330 329 327 326 326 325 324 323
348 348 346 346 348 348 346 346 344 344 344 333 324 323 322 322 323 328 340 339 340 340 341 340 340 340 339 338 338 338 339 340 341 342 344 343 342 344 342 340 340 334 322 319 318 317 324 332 332 328 330 332 329 332 334 333 329 327 326 326 327 324 324 324 327 327 330 331 326 324 322 324 327 325 324 327 329 330 331 328 324 323 323 323 322
347 347 345 348 348 347 346 345 345 345 346 327 320 320 319 318 320 325 339 340 340 341 341 342 342 341 341 340 340 339 340 340 340 343 345 345 344 342 341 339 339 340 339 337 335 335 334 333 333 333 333 334 334 334 333 332 330 329 328 326 326 326 325 326 326 327 327 330 329 326 320 323 326 324 324 326 327 327 330 325 323 322 322 320 320
346 346 348 347 347 346 346 346 343 343 343 324 321 320 318 317 320 334 338 339 339 341 341 342 342 342 342 342 341 341 342 344 340 333 338 343 340 337 337 338 338 337 334 331 328 330 334 334 331 332 333 333 320 329 330 327 329 330 328 327 327 325 323 321 320 323 322 326 328 324 321 321 325 321 323 326 326 326 327 328 323 322 320 320 320
342 344 345 343 346 345 344 345 345 344 345 333 320 318 317 316 321 337 338 339 340 341 342 341 341 343 344 346 346 345 342 342 334 322 325 330 335 334 335 335 332 331 330 334 327 323 323 319 316 316 315 314 315 314 312 311 322 324 325 322 321 323 321 317 319 320 321 323 324 325 321 319 323 322 321 323 324 324 325 325 328 324 321 319 319
341 341 344 346 348 346 343 344 342 343 345 333 316 315 314 315 326 338 340 341 342 343 342 343 343 342 342 341 341 342 338 338 328 321 321 329 334 334 336 335 334 333 333 334 336 336 319 316 317 317 316 317 316 315 314 314 313 315 325 320 322 322 320 319 316 318 320 322 322 325 321 319 322 323 321 323 324 324 324 326 327 327 323 320 319
341 345 344 342 344 346 344 343 346 344 344 334 314 314 313 314 326 339 340 342 341 341 340 340 341 341 342 340 333 332 334 334 322 319 316 325 334 334 335 334 332 332 333 335 332 331 333 332 332 331 329 323 327 331 331 320 316 318 326 325 325 324 319 318 317 318 316 318 323 327 319 319 320 321 322 319 318 322 325 325 326 328 329 328 326
Wind_Speed
2 2 1 2 2 3 3 3 3 4 3 4 3 3 3 2 3 4 4 4 5 5 4 5 4 4 3 3 4 4 4 4 4 3 3 3 3 6 10 9 9 10 10 11 10 11 11 12 12 12 12 15 14 13 13 11 12 12 12 13 14 14 14 13 13 13 13 13 12 12 11 11 11 10 10 10 10 10 10 9 9 9 9 9 9
2 1 2 1 2 3 3 4 2 3 3 4 3 3 3 3 3 3 4 5 5 4 5 5 5 5 4 4 4 4 3 3 3 4 3 3 3 4 9 7 8 9 10 10 11 10 10 11 10 10 13 14 14 14 13 13 12 12 13 14 15 15 15 14 14 14 14 13 13 13 12 12 11 11 11 11 11 11 10 10 10 10 10 9 10
1 2 2 2 3 3 4 3 4 6 6 4 2 3 4 4 3 4 4 5 5 4 5 5 5 5 4 4 4 4 3 3 4 4 5 4 3 3 6 8 7 8 9 10 10 10 10 9 10 11 13 14 14 14 14 14 16 14 13 15 15 15 15 15 15 15 15 14 14 13 13 13 12 12 12 12 12 12 11 11 11 11 10 10 10
2 2 3 2 3 3 4 3 2 3 1 4 4 4 4 4 3 3 4 5 4 4 4 5 5 5 4 5 4 4 4 3 4 4 4 3 3 3 3 6 7 8 8 9 10 10 10 10 10 10 11 12 14 15 14 14 15 16 15 15 15 14 12 12 14 16 16 15 15 14 14 14 13 13 13 13 13 12 12 12 11 11 11 11 11
2 3 3 4 3 3 5 2 1 2 1 2 4 4 4 5 4 3 4 4 4 4 4 5 4 4 5 5 4 4 4 4 3 3 3 3 4 4 4 4 6 7 8 9 10 11 10 12 11 10 11 12 13 14 15 16 16 15 16 16 15 15 14 15 14 14 16 16 15 15 15 14 14 14 14 14 14 13 13 13 12 12 12 12 11
3 3 4 4 4 3 4 2 1 2 2 2 3 3 5 4 4 3 3 4 4 4 4 4 5 4 5 4 4 4 4 4 4 3 3 3 3 3 4 4 3 5 5 9 9 10 12 12 11 9 9 9 10 12 15 16 17 16 17 15 15 15 17 16 15 14 13 13 15 15 15 15 14 14 14 14 14 14 14 13 13 13 12 12 12
3 3 3 4 4 4 2 1 2 2 2 2 3 3 4 3 3 3 3 4 4 4 5 5 5 5 5 5 5 4 4 4 4 3 3 3 3 4 3 3 3 3 4 6 8 10 11 12 11 11 11 13 14 14 14 15 16 17 17 16 17 18 18 17 16 14 12 12 13 15 15 15 15 15 15 15 15 14 14 14 14 14 13 13 13
3 3 3 4 4 3 2 2 2 2 2 2 3 3 2 3 2 3 4 5 5 5 4 5 4 5 4 4 4 4 4 4 3 4 3 2 3 3 3 3 3 4 2 3 5 7 10 8 10 12 13 14 14 13 14 14 15 15 16 17 17 18 18 16 15 15 14 13 12 13 14 15 15 16 15 16 15 15 15 15 15 14 14 13 13
4 3 3 4 3 3 2 2 2 2 2 2 3 2 2 2 2 3 4 4 5 5 4 4 4 4 5 5 4 4 5 4 4 2 2 4 3 3 3 3 2 2 5 4 4 6 8 10 9 11 13 13 14 15 14 14 14 14 16 17 17 18 18 17 15 14 13 13 12 13 14 15 16 16 16 16 16 15 14 15 15 15 15 14 14
4 4 3 4 4 3 2 1 2 2 2 2 2 2 2 3 3 2 2 3 4 4 4 4 4 4 5 4 3 4 4 4 3 3 3 3 3 2 2 1 3 3 2 3 3 3 6 9 11 12 12 13 14 14 14 14 15 14 14 15 17 18 17 14 11 11 10 9 10 12 14 16 15 14 14 16 17 16 16 15 16 16 15 15 14
3 4 4 3 3 2 2 1 2 1 1 3 2 2 3 3 3 3 2 3 4 4 5 5 5 4 4 3 3 3 4 3 3 2 3 2 1 1 1 1 2 2 3 3 3 3 3 3 6 6 8 14 12 13 14 14 13 12 13 14 16 14 11 9 8 9 10 11 12 14 18 18 17 16 16 17 19 17 16 17 17 16 16 16 15
4 4 4 3 3 2 1 0 0 1 2 3 3 3 3 3 3 3 3 3 3 3 3 4 5 3 3 3 2 2 2 1 2 1 1 1 0 0 0 2 2 1 1 1 1 1 1 1 2 3 2 10 11 7 10 11 11 11 12 12 10 8 8 8 8 11 11 13 17 20 19 18 17 17 17 19 19 18 17 16 16 16 17 17 16
4 4 4 3 2 1 1 1 1 2 1 2 3 3 2 2 2 3 3 3 2 2 1 4 4 2 1 2 2 1 2 1 0 1 0 1 1 1 1 1 1 1 1 1 0 1 2 1 1 1 2 0 8 10 7 7 8 9 10 11 10 10 8 11 11 13 15 15 16 17 16 16 16 17 17 16 16 16 17 17 16 16 17 17 16
4 4 4 3 3 2 2 2 2 1 1 2 2 2 2 3 2 3 1 2 2 3 3 4 2 3 3 1 1 3 2 2 1 1 2 1 2 2 1 1 1 1 1 1 0 0 0 0 1 1 2 1 3 2 4 4 3 3 6 8 6 6 6 9 11 12 13 14 15 16 18 19 19 18 16 16 13 14 16 18 18 17 16 16 17
5 5 4 4 4 3 3 2 2 1 1 2 1 2 1 2 2 3 1 2 1 0 2 4 5 4 2 3 1 3 2 1 2 2 2 2 2 4 3 4 4 2 2 1 1 2 2 3 2 2 2 3 1 2 2 2 6 6 6 9 8 3 5 6 7 10 12 13 14 16 18 17 18 19 18 17 15 15 16 17 18 18 18 17 18
5 5 4 4 4 4 3 2 2 1 1 2 2 2 2 2 2 2 1 3 1 2 3 3 5 5 2 3 1 4 4 1 1 2 2 1 2 5 4 2 4 3 1 2 2 3 3 3 2 2 2 3 3 2 2 3 4 4 8 11 9 6 7 6 5 5 7 11 14 16 17 17 18 18 19 19 18 18 17 17 18 19 18 18 18
5 5 4 4 4 4 3 2 2 2 1 2 2 1 1 1 1 1 1 3 2 2 1 2 2 2 4 3 1 3 4 4 3 2 4 2 2 6 4 4 5 4 3 3 3 2 2 3 3 3 3 3 3 2 3 4 3 4 6 11 10 9 9 9 8 6 5 7 9 12 14 16 17 17 17 18 19 20 18 18 18 19 19 19 19
5 5 5 5 5 4 3 3 3 3 2 1 0 1 2 3 1 1 0 0 2 1 1 2 2 3 2 3 4 5 5 5 4 1 2 4 4 4 4 4 4 3 2 2 2 2 1 3 2 3 3 3 4 4 4 5 5 5 6 8 10 9 9 9 9 9 9 8 8 8 9 10 13 16 17 19 20 20 20 18 18 18 19 20 20
5 5 5 5 5 4 5 4 3 3 2 2 2 2 1 1 1 1 0 1 1 1 1 1 1 0 2 3 3 3 4 5 4 3 3 1 3 3 5 4 4 4 3 3 2 2 2 2 4 4 4 4 4 4 4 5 5 5 10 9 8 8 9 9 9 9 10 10 11 10 10 10 10 11 15 18 20 20 20 20 19 17 18 19 20
5 6 6 6 6 5 5 4 4 4 3 3 2 1 1 1 1 0 1 1 1 1 2 1 2 2 2 2 2 4 4 3 4 4 3 0 4 2 5 4 4 4 5 3 3 5 3 2 3 3 4 4 4 4 4 4 4 4 5 7 7 7 8 8 8 9 10 10 10 11 11 11 11 11 10 14 18 20 20 21 21 19 19 19 19
7 7 7 6 6 6 6 5 5 5 4 3 3 2 2 2 2 2 2 2 1 0 1 2 2 2 1 1 1 1 1 2 2 2 3 3 2 3 2 1 1 3 3 3 4 3 4 3 2 2 2 3 3 3 4 4 3 4 5 6 6 6 7 8 8 9 9 10 10 11 11 12 12 12 12 12 12 14 19 20 20 21 20 19 20
7 7 7 7 7 6 6 6 6 5 4 3 2 2 3 3 3 3 2 2 1 2 2 0 1 2 0 1 1 1 2 2 2 1 1 2 3 3 2 2 2 1 1 2 1 3 2 1 1 1 2 2 2 3 3 3 3 4 5 5 5 6 6 7 7 8 9 10 10 10 11 11 12 13 13 13 13 13 14 16 19 19 19 20 20
6 6 7 7 7 6 6 6 5 5 4 4 3 3 4 4 3 3 3 3 2 2 2 1 1 1 1 1 1 2 2 2 2 3 3 3 3 4 3 3 5 1 2 1 2 2 1 2 2 1 1 1 2 3 3 3 0 4 5 2 3 4 5 6 7 7 8 8 10 10 11 11 12 12 13 14 14 14 14 14 13 16 20 19 20
6 6 7 8 7 6 6 5 5 5 5 4 3 3 3 3 3 3 3 4 3 3 3 2 3 2 2 2 2 2 1 2 1 0 2 3 3 4 5 2 3 3 2 3 4 4 3 3 3 1 2 0 0 2 2 3 3 6 6 3 3 3 4 5 7 7 7 8 9 10 11 11 12 12 12 13 14 15 14 14 14 14 14 19 21
7 7 8 8 7 6 6 5 5 6 5 5 4 4 4 3 3 4 4 5 4 3 3 3 3 2 2 1 2 2 2 1 1 3 2 1 3 4 5 4 4 5 3 3 4 4 5 6 4 2 2 2 2 1 3 3 4 5 5 5 2 5 4 5 6 7 8 9 10 10 10 11 11 12 12 12 13 14 14 15 14 14 15 14 17
8 8 7 8 7 6 6 6 6 6 6 6 5 5 5 4 4 4 4 4 3 4 3 3 3 3 3 3 3 3 3 2 3 3 3 3 4 5 5 5 6 6 4 4 5 6 5 4 4 3 4 3 3 2 3 4 4 5 4 7 5 8 5 4 6 6 8 10 10 10 11 11 11 12 12 13 13 13 13 14 15 15 15 16 16
7 7 7 7 7 6 6 7 7 7 7 6 6 5 5 5 4 4 4 3 4 3 3 4 4 3 4 4 3 4 3 3 3 3 3 3 3 4 4 6 6 6 6 4 3 6 6 4 5 5 4 4 4 4 4 5 4 3 6 6 5 6 6 6 6 6 8 10 10 11 11 11 11 12 13 13 13 13 14 14 14 15 16 15 15
7 7 7 7 7 7 7 7 7 7 7 6 6 5 5 5 4 4 4 3 3 4 3 4 4 4 5 5 4 5 4 4 3 4 3 3 3 4 4 5 6 7 6 6 6 5 5 6 6 6 5 5 5 5 5 5 5 4 9 7 5 4 8 7 6 6 8 9 11 11 11 12 12 12 12 13 14 14 14 14 14 14 15 16 16
6 7 7 7 7 7 7 7 7 6 7 6 6 5 5 5 5 5 5 4 4 4 4 4 4 4 5 6 5 5 4 4 4 4 3 3 4 4 4 5 6 7 7 7 7 8 5 6 8 4 4 6 6 6 6 7 5 5 7 7 6 7 5 7 6 8 9 10 10 11 11 11 11 11 12 13 13 14 15 15 15 15 15 16 16
6 6 7 7 7 7 6 6 6 7 7 6 6 6 6 5 5 5 5 4 4 4 5 5 5 5 5 5 5 6 5 5 5 5 4 4 5 5 5 5 5 7 7 8 9 7 9 7 6 6 5 6 6 7 7 7 5 5 8 7 7 7 2 5 8 11 11 11 11 11 11 12 11 10 10 11 12 13 14 15 15 15 16 15 16
7 7 7 7 7 7 7 7 7 7 7 7 6 6 6 5 5 5 5 5 5 5 4 5 5 5 5 6 6 6 5 6 5 5 4 5 4 4 5 5 6 7 8 8 10 7 6 8 7 7 8 8 7 8 7 7 7 8 8 8 8 8 6 10 12 13 13 13 12 12 12 12 12 11 11 12 12 13 14 15 15 15 16 16 16
8 8 8 8 8 8 8 8 8 8 7 7 7 6 6 6 5 5 5 5 5 5 5 4 4 4 5 6 6 6 6 5 6 5 5 4 5 5 5 5 6 6 7 8 10 10 8 9 8 8 9 9 8 8 8 7 6 7 8 8 9 9 9 9 12 16 15 14 13 13 12 12 12 12 13 12 12 13 15 15 14 14 15 16 16
8 9 9 9 9 8 8 8 8 7 7 7 6 6 6 6 6 5 5 5 5 5 5 5 5 5 5 6 7 7 7 7 6 6 6 6 6 6 6 6 6 6 6 8 9 10 8 7 8 8 8 9 9 8 9 8 7 7 8 9 9 9 9 9 9 10 14 14 14 13 13 13 13 13 14 13 13 13 15 15 14 14 15 15 15
9 9 10 9 9 9 9 8 8 8 7 7 7 6 6 7 7 6 6 6 7 7 6 6 6 6 6 7 7 7 7 7 7 7 7 7 6 6 5 6 6 6 6 7 9 9 10 7 8 8 8 9 9 8 8 9 9 8 9 9 9 9 8 9 9 9 8 11 12 13 13 13 14 14 15 15 15 15 15 15 15 15 15 16 16
10 10 10 9 9 9 9 8 8 8 8 8 8 8 7 8 8 7 7 7 7 7 7 8 8 7 8 8 8 7 6 7 7 7 7 6 6 6 6 5 7 7 7 7 8 9 10 9 8 9 8 9 10 9 9 8 9 9 9 10 9 8 8 9 10 9 10 9 10 12 13 13 14 15 16 16 16 16 16 15 16 16 16 16 16
9 9 10 10 9 9 9 9 9 9 9 9 9 9 8 8 8 9 9 8 8 8 8 9 9 8 9 9 8 7 7 8 7 7 6 6 6 5 5 5 6 8 7 7 8 9 9 10 8 9 8 8 9 10 9 8 10 9 8 9 9 9 10 9 10 10 10 10 10 12 13 14 15 16 16 17 17 17 16 16 15 16 16 16 16
8 7 8 9 9 10 10 10 10 10 10 9 9 9 8 8 9 9 9 9 9 9 10 10 10 10 10 10 9 8 7 8 7 7 6 7 7 6 6 6 7 7 7 7 8 8 9 10 10 9 8 8 8 9 9 10 10 9 9 10 9 10 10 10 10 10 12 12 13 16 16 16 16 16 18 18 18 17 17 17 17 16 16 17 17
13 13 12 10 9 10 10 10 10 10 9 9 10 10 10 9 9 10 9 9 10 10 10 10 10 10 9 10 10 9 8 8 8 8 8 9 8 8 8 7 7 7 8 8 8 9 10 10 10 10 8 9 8 8 8 9 9 10 9 9 10 9 9 10 10 9 9 9 9 9 9 11 14 17 18 18 18 18 18 18 18 18 17 17 18
13 12 12 11 9 9 9 9 10 10 10 10 9 9 10 10 10 10 10 10 10 9 10 10 10 10 10 10 10 9 9 9 10 10 9 9 8 9 8 8 8 8 8 8 9 10 10 10 10 10 9 8 8 9 8 9 10 9 10 9 10 9 8 10 10 11 10 11 13 13 13 13 15 16 17 16 16 17 18 19 20 20 19 19 19
12 13 12 12 11 11 11 10 10 9 9 10 10 10 10 10 10 10 10 10 10 10 10 10 10 10 10 10 10 10 10 10 11 10 10 9 8 9 8 8 8 9 9 9 9 9 10 10 10 10 9 9 8 8 8 8 9 9 9 9 11 10 10 10 11 11 9 10 12 12 11 12 13 15 17 19 20 20 21 20 21 22 23 23 20
12 13 12 12 11 11 10 9 9 9 9 9 9 9 10 11 10 10 10 10 10 10 10 10 10 10 10 10 10 10 11 10 10 9 9 7 7 8 8 8 9 9 9 9 9 10 9 10 10 9 9 9 9 9 9 9 10 11 9 9 11 11 11 11 11 11 11 12 11 12 12 13 13 13 14 13 12 13 14 17 16 22 24 22 19
12 11 11 11 11 12 11 10 9 9 9 8 9 11 10 9 9 8 9 9 10 10 10 10 10 10 11 10 10 10 8 8 9 11 12 11 9 9 9 9 10 10 9 9 9 9 10 11 11 10 10 10 10 10 10 11 10 10 11 10 11 11 12 12 12 10 10 11 12 12 12 11 12 13 13 14 13 13 14 13 14 14 12 11 13
12 11 10 11 11 11 11 10 10 9 9 9 11 11 11 10 9 10 9 8 9 10 10 10 10 10 10 10 9 8 9 10 11 12 12 12 12 13 14 13 10 9 11 11 10 10 10 11 11 11 11 12 12 11 11 11 10 11 10 10 11 11 12 13 13 10 8 9 11 13 12 12 13 14 14 13 13 14 14 15 17 16 14 14 15
11 10 10 10 10 10 9 10 10 9 9 10 12 13 12 12 10 9 10 9 9 9 10 10 9 9 10 10 9 8 9 11 11 10 12 14 14 15 15 14 15 14 11 9 10 10 11 11 11 11 11 11 12 11 11 11 11 11 11 11 11 11 13 13 13 14 10 10 13 14 15 11 12 15 17 14 14 14 16 17 17 16 18 20 20
12 11 11 11 10 10 9 9 9 9 9 10 14 14 13 12 13 11 10 10 10 10 10 10 10 10 10 10 9 9 9 9 9 11 11 10 13 15 15 14 13 13 13 13 13 11 11 12 12 12 12 12 13 11 10 11 11 12 11 11 10 11 12 14 13 13 12 11 12 13 15 14 13 15 16 14 14 15 16 17 16 15 17 19 19
12 11 10 11 10 10 9 9 9 9 10 10 14 14 14 14 14 12 10 12 11 11 11 10 10 11 11 11 10 10 10 10 10 10 9 9 9 8 8 8 9 12 15 16 15 16 13 11 12 13 13 12 12 12 12 11 11 11 11 10 12 13 13 14 14 14 13 11 14 13 15 14 12 15 16 15 15 15 14 18 19 16 17 18 19
12 10 11 10 8 9 10 10 9 9 8 11 14 15 15 15 14 12 10 11 11 10 10 11 11 12 12 11 12 12 11 11 10 7 8 8 7 8 9 9 9 9 7 7 8 8 8 9 10 12 12 12 12 12 11 10 11 11 12 13 13 13 14 14 15 14 14 13 15 13 16 14 13 14 16 15 15 16 15 18 18 16 17 18 18
8 9 8 7 8 9 9 9 9 9 8 14 15 16 15 13 11 8 9 10 11 11 11 11 12 11 11 12 11 11 11 10 9 6 6 7 9 10 10 9 9 7 6 8 10 11 11 10 10 11 10 9 7 8 7 8 9 9 9 9 9 11 13 13 14 13 13 11 11 12 15 15 13 16 16 14 15 17 15 17 19 17 16 17 19
11 10 8 9 10 9 9 8 8 8 8 12 16 16 14 12 10 9 9 9 10 11 11 12 12 12 10 10 8 6 7 10 7 7 7 6 9 11 10 8 6 7 10 8 9 12 9 8 11 13 13 13 12 11 11 10 8 7 8 9 11 11 12 14 13 12 12 11 10 12 15 16 14 14 16 16 15 16 16 17 17 20 17 16 17
10 10 8 7 8 8 8 7 8 9 10 9 15 14 13 14 12 8 7 8 9 9 10 10 10 10 11 10 9 9 11 11 8 9 9 8 9 10 9 9 9 9 9 8 5 6 12 11 12 14 13 12 12 13 12 12 12 9 9 11 11 11 13 13 14 12 12 11 12 12 14 15 15 13 15 15 16 16 18 18 17 15 16 17 19
9 8 9 10 9 7 6 7 6 8 10 6 14 13 13 14 11 7 7 8 8 9 8 10 10 9 9 8 12 12 11 11 6 3 9 9 9 10 9 9 10 10 8 7 7 8 6 7 8 9 10 13 12 10 10 15 17 14 12 13 12 11 12 14 14 14 14 11 9 10 14 14 14 14 13 15 15 13 13 15 14 13 14 15 18
Wind_Direction
230 233 246 267 282 269 280 288 298 286 297 288 305 300 295 318 316 312 318 321 311 302 303 293 290 279 278 274 263 269 271 273 281 276 264 281 258 152 178 195 210 215 214 215 223 222 219 214 215 215 213 211 212 223 231 238 231 220 220 228 226 223 222 220 218 214 214 211 213 214 217 219 218 224 233 237 239 240 240 243 248 249 249 254 255
211 216 237 263 278 282 275 269 295 272 281 297 308 302 306 315 326 320 316 310 300 297 303 303 295 293 298 295 282 271 264 261 256 259 272 255 241 135 169 189 212 217 222 224 224 226 222 220 216 225 223 223 221 216 221 222 230 229 219 221 229 224 223 223 223 221 219 216 215 214 215 219 223 222 228 237 241 241 241 244 244 248 251 250 256
267 261 258 261 262 266 264 280 262 27 324 296 311 311 308 306 332 315 313 307 301 305 296 304 301 292 288 281 280 278 275 277 270 251 246 240 236 223 158 177 203 216 224 225 227 231 227 225 218 218 228 228 228 226 224 225 225 224 231 224 224 228 226 225 225 227 224 221 218 217 218 219 221 224 226 230 239 242 243 245 246 248 250 255 254
264 254 264 263 263 271 275 267 318 134 280 302 317 313 312 308 301 299 299 285 287 295 299 296 303 308 297 284 287 275 273 275 275 282 277 260 253 233 212 162 190 206 218 220 220 224 229 233 226 221 227 235 231 228 230 232 232 228 225 231 228 229 225 229 233 228 229 227 222 219 219 220 222 224 226 229 231 237 242 244 247 248 251 253 256
224 254 259 258 266 270 272 288 23 294 265 307 291 292 282 269 260 274 274 282 294 299 294 288 305 312 303 307 302 302 293 281 278 265 255 255 243 241 236 205 166 199 204 219 213 215 220 223 223 218 227 232 234 233 233 231 231 227 226 228 231 229 226 224 224 231 231 230 227 225 222 222 221 223 225 227 230 233 234 238 242 246 250 252 254
234 236 253 263 260 259 272 266 237 258 250 250 266 273 285 297 296 273 281 289 299 298 306 306 299 301 299 310 293 294 296 289 280 276 276 264 266 256 247 228 213 182 191 203 215 217 215 219 216 219 234 239 247 243 238 235 233 233 230 228 231 233 230 225 225 225 228 235 235 233 230 228 227 226 227 227 228 231 234 234 235 238 243 249 250
216 243 260 273 262 249 241 231 260 261 254 246 268 268 262 263 252 274 300 274 284 306 302 307 307 304 296 301 302 303 296 293 294 286 266 263 265 261 250 254 223 236 218 183 193 206 213 220 217 212 226 236 236 238 239 240 236 234 232 227 232 234 233 232 229 230 229 230 236 238 237 235 233 232 233 232 230 229 232 234 235 234 235 239 246
208 208 241 252 260 272 230 202 221 266 257 244 243 251 253 270 302 294 295 314 322 301 302 299 292 289 299 293 285 288 285 286 288 284 289 275 252 241 245 236 236 237 237 251 182 170 193 205 217 210 212 222 232 234 236 238 241 242 238 232 231 233 233 233 233 233 235 234 237 240 240 241 240 240 236 238 238 234 232 233 236 236 235 234 236
194 202 230 242 252 249 224 179 220 229 232 245 260 255 265 264 250 292 315 306 299 297 295 285 297 308 294 276 280 285 277 284 275 277 284 266 257 247 230 232 230 213 231 225 243 145 194 172 207 210 208 220 228 233 234 242 240 240 241 241 236 232 233 231 231 234 236 240 243 247 249 245 240 238 238 238 240 240 238 236 234 236 237 235 233
201 194 219 251 251 248 259 196 214 242 275 277 294 309 302 309 321 316 322 306 285 296 298 310 311 299 296 301 294 278 278 270 282 284 266 261 254 247 253 252 247 221 240 246 234 232 175 178 182 200 211 223 231 234 239 240 241 243 241 242 244 244 238 236 240 251 269 270 275 280 278 271 262 254 248 247 242 238 240 239 237 235 235 237 235
200 205 214 236 246 251 269 219 280 282 288 284 277 286 319 329 312 318 274 280 302 306 311 306 303 295 278 280 291 271 277 283 288 275 289 272 275 265 196 191 188 200 221 225 230 209 248 191 199 204 192 201 227 234 239 247 254 251 250 246 243 249 261 280 290 271 253 256 244 236 241 246 248 243 239 239 241 235 234 237 239 236 236 235 236
184 199 214 234 251 250 279 257 268 283 291 296 313 307 344 321 294 287 289 269 268 294 297 305 302 294 306 299 277 264 266 284 261 282 243 257 241 212 193 152 166 138 132 215 242 285 226 206 263 238 245 176 205 237 247 256 261 267 273 275 276 293 339 318 268 252 244 223 228 233 234 239 242 241 235 234 239 239 234 234 235 236 236 236 235
193 201 225 214 255 255 154 184 228 252 294 309 335 333 317 296 283 279 283 292 274 264 342 312 302 281 272 253 155 223 168 201 120 145 121 111 171 135 114 93 85 128 110 43 209 247 191 211 257 291 251 301 190 202 230 241 253 267 284 300 323 326 278 270 254 246 246 246 247 250 256 258 257 254 250 242 236 239 243 239 236 236 235 235 236
193 205 221 212 219 190 192 205 224 258 296 335 308 292 265 260 293 262 250 323 323 344 15 308 265 343 338 345 123 145 178 198 181 115 96 116 134 127 134 113 51 22 348 126 120 270 329 40 329 360 344 284 315 151 201 216 235 28 4 2 29 334 282 252 254 257 256 252 250 250 251 250 252 252 253 248 239 238 240 244 241 235 234 232 234
210 213 220 207 202 200 197 199 226 222 236 266 259 254 267 283 274 310 291 180 282 13 358 344 330 346 303 257 143 185 167 220 287 86 86 106 89 65 33 42 39 26 4 333 11 13 14 15 16 353 360 342 326 349 315 55 47 32 41 47 75 304 294 280 268 253 249 251 248 246 247 249 249 250 249 249 246 244 240 239 240 237 234 232 233
214 219 208 209 202 203 201 206 189 192 273 268 256 250 234 234 235 239 303 292 160 55 38 9 349 337 357 341 15 296 143 176 53 70 158 88 116 94 44 62 70 20 17 10 22 14 22 43 23 19 9 11 356 353 5 10 52 54 56 52 54 34 352 344 331 301 272 250 241 245 250 251 249 248 248 248 248 248 249 245 240 238 237 233 233
220 220 213 198 202 205 208 193 188 205 214 230 233 266 259 236 255 263 290 331 318 81 88 30 7 352 335 306 206 210 16 40 355 39 323 91 37 63 68 48 42 35 15 34 15 12 36 49 29 45 26 20 25 17 28 30 26 35 70 47 35 25 11 1 353 338 310 288 270 260 255 251 250 250 250 248 250 248 244 246 243 239 237 236 235
223 220 205 195 196 199 199 194 203 179 204 226 270 259 231 261 170 273 225 63 337 334 33 100 347 4 6 353 347 349 348 348 301 102 55 70 87 76 73 53 69 61 40 63 44 33 52 63 72 62 45 44 40 34 37 45 27 46 32 35 27 23 17 4 358 351 347 333 320 305 291 277 260 249 248 249 248 247 245 243 244 240 237 236 236
219 213 203 199 196 193 192 203 194 187 187 209 216 232 215 248 236 206 50 82 227 315 307 65 111 10 13 351 354 349 10 330 3 326 138 69 351 129 96 98 96 91 78 47 83 87 42 74 73 59 62 56 60 45 52 54 63 76 62 29 23 17 12 3 354 352 346 345 344 341 337 325 307 280 258 249 247 247 245 245 244 243 240 237 237
218 209 211 201 210 203 198 198 192 193 183 205 227 249 279 225 234 196 188 201 221 301 330 350 314 74 68 343 2 22 7 355 343 340 334 249 142 68 140 144 161 116 102 81 66 70 71 50 82 92 76 69 51 49 56 56 40 40 46 30 19 8 9 357 352 345 346 346 345 342 336 329 326 319 304 276 261 257 253 248 246 243 241 240 239
218 204 210 208 199 196 188 197 193 195 190 208 196 192 222 222 202 201 200 192 219 6 276 312 308 35 23 109 21 327 6 3 325 279 326 324 212 148 122 358 149 85 77 124 117 127 122 99 82 93 102 76 66 50 44 49 46 33 38 16 11 3 1 355 348 344 343 342 339 338 333 331 327 322 317 316 303 280 263 255 252 251 251 252 253
211 209 201 197 188 189 196 198 199 200 194 215 202 189 209 217 215 213 208 215 177 213 252 336 309 38 342 4 267 200 214 195 215 274 275 307 312 318 295 155 218 116 177 125 119 154 135 104 222 96 61 53 41 40 30 31 42 27 15 344 355 345 351 352 343 342 341 335 334 332 330 328 326 323 320 315 312 310 305 281 263 259 256 252 248
210 200 191 189 190 197 205 198 205 193 200 201 214 216 201 204 216 208 207 214 195 200 204 187 213 213 180 218 287 298 355 318 349 340 331 294 296 296 292 356 341 275 151 357 250 250 152 216 190 134 349 60 36 23 18 358 4 54 324 333 329 321 326 337 339 337 335 330 327 324 325 323 321 320 319 317 312 310 307 311 301 271 259 256 252
210 189 193 193 195 199 209 202 200 199 196 200 212 224 242 199 207 213 207 202 199 205 224 208 208 200 214 192 216 250 211 252 294 210 277 307 316 304 302 290 260 254 140 203 224 238 230 225 230 175 225 51 36 18 9 312 85 94 329 359 287 278 284 308 320 323 322 322 317 318 316 316 316 316 315 313 313 311 309 305 301 300 281 261 259
199 198 199 200 191 199 202 204 199 203 203 198 209 217 233 221 212 217 209 202 209 215 217 222 226 246 243 208 258 261 234 237 227 248 205 241 268 291 290 326 292 285 296 303 259 218 239 216 211 239 196 230 229 302 322 313 327 62 328 312 231 245 234 276 290 300 308 307 307 308 310 310 311 310 309 310 309 309 311 307 300 293 292 286 269
199 202 203 199 198 198 202 206 205 197 200 205 213 213 211 223 212 220 214 213 219 224 238 241 232 230 233 241 236 234 252 219 213 240 275 249 259 280 317 301 291 293 277 262 282 279 243 218 245 208 239 220 257 251 281 310 293 104 308 295 263 194 214 245 263 279 294 300 300 300 302 304 304 304 305 306 306 307 305 304 301 292 287 286 285
204 200 203 197 201 200 202 209 199 199 200 204 206 207 206 214 218 220 227 210 216 229 238 238 237 228 229 243 255 256 260 262 258 240 253 273 279 296 295 298 296 299 295 284 263 245 276 266 220 226 215 238 251 267 278 300 297 223 268 278 281 171 206 218 246 270 287 293 290 290 293 295 296 297 299 300 300 301 302 302 298 295 288 283 282
200 196 194 197 198 202 201 208 201 201 203 206 205 204 198 209 211 213 223 198 217 219 234 240 240 238 241 239 245 263 261 266 270 275 275 282 286 287 285 279 288 294 301 295 294 296 289 268 241 234 256 251 263 282 282 256 282 164 241 266 280 255 183 202 231 275 277 275 280 282 282 285 286 287 289 291 294 294 296 295 295 292 288 284 280
200 192 194 194 198 203 204 209 202 206 204 204 204 206 200 207 208 212 219 214 212 226 233 234 243 245 246 243 251 257 263 264 270 271 272 267 270 275 274 280 286 285 284 290 294 299 290 300 303 302 252 252 270 280 280 278 274 236 290 283 278 278 190 181 236 272 271 265 267 273 276 277 277 279 283 287 287 287 288 289 288 286 284 281 277
196 194 194 192 199 202 210 213 210 207 208 203 202 203 204 211 209 212 216 223 222 227 231 241 245 243 243 249 250 254 253 252 252 259 254 250 259 260 269 270 275 280 287 287 292 292 293 292 281 287 281 275 276 275 280 282 300 240 280 279 278 278 332 237 260 260 257 258 260 263 267 273 276 274 278 281 279 280 282 282 283 282 282 281 279
194 192 193 197 201 201 209 213 211 211 204 209 202 205 205 221 214 216 209 215 224 229 235 238 251 250 251 255 255 258 259 265 267 262 254 247 250 262 266 266 267 269 280 287 288 278 283 293 293 287 292 286 288 288 279 276 286 288 285 285 278 292 279 270 255 245 242 244 249 255 258 266 271 275 279 280 280 277 278 278 278 279 279 280 279
192 190 197 204 203 205 206 213 216 208 205 209 208 206 210 220 221 226 204 207 221 233 244 241 251 255 261 260 257 257 257 260 263 257 255 253 261 268 269 267 263 262 265 275 276 283 286 287 290 291 286 290 286 281 287 288 276 252 268 276 282 278 267 266 241 225 230 230 238 244 253 258 265 272 276 279 278 278 278 277 274 274 274 275 274
191 190 196 203 205 207 214 214 216 212 208 212 209 207 211 215 220 228 227 217 229 238 241 249 250 254 261 264 265 262 258 257 255 260 257 258 257 257 261 263 267 264 264 271 277 281 282 282 290 290 292 292 287 286 287 288 286 284 272 279 284 282 280 277 279 249 217 222 226 236 245 252 261 267 272 275 275 273 275 276 275 273 272 272 273
188 191 194 198 206 206 209 211 211 214 210 216 213 208 211 217 221 218 224 226 232 240 249 252 250 250 251 256 260 267 261 255 254 257 262 263 264 264 256 266 271 271 264 270 275 280 282 284 276 283 290 290 289 293 296 299 297 292 290 292 287 281 278 281 282 285 266 215 221 229 240 250 258 265 268 270 272 272 272 274 274 273 271 271 271
183 190 192 197 201 207 206 204 206 209 214 215 215 215 215 220 225 230 230 230 235 244 246 249 255 257 257 259 261 260 262 260 252 253 259 259 261 259 266 270 273 275 274 267 274 278 281 282 282 282 282 289 291 301 300 295 293 291 290 285 288 292 290 285 283 282 281 270 242 237 243 250 257 263 268 269 269 270 269 268 270 270 269 269 267
182 184 188 193 199 201 202 203 205 209 212 216 218 217 220 223 228 233 236 240 246 249 254 259 260 258 260 261 259 261 261 262 261 256 253 256 253 252 256 260 262 265 267 267 263 272 279 285 282 282 291 292 292 292 291 291 288 287 285 287 287 283 287 287 282 282 285 282 268 254 248 250 254 259 262 264 266 267 266 263 262 265 266 264 263
165 185 188 193 196 198 203 205 205 209 214 217 219 222 221 225 232 237 241 244 247 250 255 260 262 263 261 259 263 260 258 261 257 254 254 250 250 251 250 251 254 261 266 264 267 266 274 279 285 285 288 283 283 281 287 293 296 292 278 282 289 290 289 288 286 280 273 261 255 253 254 252 250 250 251 255 259 260 261 262 260 260 261 261 260
185 186 181 189 192 200 206 206 207 209 214 220 222 223 226 228 232 239 244 246 250 253 257 258 258 257 257 257 255 253 254 256 260 255 250 248 251 252 255 258 263 268 269 271 269 270 272 276 281 288 288 288 286 283 288 287 284 287 289 290 289 283 282 284 288 294 296 291 291 277 258 247 241 236 243 248 251 253 255 260 263 261 257 256 256
188 191 183 187 190 199 203 204 207 209 213 219 222 222 229 235 239 242 247 250 251 255 257 257 257 258 255 251 248 246 247 248 251 254 252 249 247 252 254 260 263 266 269 271 273 271 272 276 278 278 283 278 283 289 285 287 289 287 285 285 282 285 282 285 286 290 293 291 288 277 265 265 276 277 266 250 243 248 254 259 262 260 258 254 252
196 195 189 187 196 199 204 204 205 207 212 218 221 225 231 236 239 242 246 252 255 254 253 254 257 257 254 249 247 241 240 243 245 248 250 250 253 250 254 263 270 273 276 278 282 281 280 281 282 285 284 286 281 274 279 279 280 278 280 296 298 294 288 285 286 288 283 286 288 290 281 264 255 250 246 244 245 248 252 254 254 255 256 254 249
199 198 192 191 197 198 198 200 197 201 214 219 223 225 227 232 239 247 249 250 249 250 252 253 252 251 252 250 248 250 245 243 247 255 264 278 269 265 265 266 270 276 276 281 285 287 284 282 283 281 282 281 282 282 283 285 288 294 299 294 288 285 286 284 279 277 282 286 284 284 285 291 290 284 286 288 283 272 256 240 244 243 244 245 246
190 190 192 194 198 195 189 189 193 203 215 222 221 217 224 234 240 248 249 248 250 251 252 253 255 251 249 252 254 248 241 231 226 230 236 244 245 259 268 270 273 273 274 273 277 283 286 285 286 290 288 284 285 288 291 291 292 290 289 292 288 295 296 291 286 279 281 284 288 284 282 284 285 283 282 282 279 274 278 274 278 281 281 271 258
187 182 187 192 202 201 194 191 197 204 214 222 205 189 203 227 246 256 257 253 250 250 250 251 255 259 260 255 256 244 220 222 227 227 231 228 234 237 245 254 260 264 270 270 271 278 284 288 288 287 286 288 287 290 288 292 289 294 296 294 295 294 294 296 294 293 281 290 288 289 284 280 282 281 278 275 275 274 275 273 267 265 257 255 258
181 180 184 192 203 204 198 197 201 203 209 215 187 188 201 211 220 241 250 252 251 252 251 253 256 259 258 259 259 256 252 249 253 230 218 224 227 229 234 239 242 246 248 259 271 278 282 287 288 286 288 285 288 287 289 291 297 297 294 294 292 292 293 291 290 291 301 296 291 291 286 282 280 278 281 278 279 276 272 271 268 260 257 258 259
178 178 173 186 199 201 197 195 202 207 219 200 184 189 197 203 210 222 242 248 251 252 256 255 259 261 263 263 263 260 264 235 236 253 260 232 211 220 225 231 237 238 239 239 245 255 272 276 278 278 276 284 286 286 288 294 298 292 294 292 291 292 290 290 291 294 297 301 294 285 283 286 286 281 279 278 279 277 277 273 265 251 250 250 252
185 182 181 193 196 195 197 200 205 213 225 187 180 187 196 200 207 209 237 241 245 252 255 259 258 259 260 263 260 261 259 256 255 253 247 249 255 227 221 228 235 223 219 226 229 235 240 256 267 274 275 275 279 284 288 289 289 291 294 290 295 295 293 290 296 293 287 285 280 283 283 281 281 284 281 283 281 278 274 271 270 260 255 253 253
186 184 189 188 197 201 200 205 208 212 222 178 181 189 199 202 203 202 235 239 246 250 251 253 256 258 262 261 264 265 267 264 260 260 253 255 254 257 258 257 255 261 252 226 223 224 233 239 249 261 271 269 273 279 283 287 292 295 293 295 293 290 289 288 282 272 273 264 265 270 273 276 281 279 279 280 280 275 272 277 272 258 254 253 254
182 186 191 178 207 209 203 204 214 218 220 175 186 197 203 203 185 206 229 241 249 252 253 256 260 262 260 262 264 266 271 270 261 180 221 248 256 255 254 252 254 261 278 251 229 242 257 272 281 283 285 312 337 307 309 308 301 292 289 284 276 276 277 277 278 278 277 274 275 276 277 278 281 282 285 287 284 278 275 277 280 271 264 263 262
187 187 192 194 204 204 200 208 218 231 244 181 189 198 201 180 173 217 222 234 241 247 255 262 263 262 261 257 250 247 262 264 254 173 202 211 252 256 253 251 253 253 256 258 211 210 210 219 251 264 267 268 276 282 273 259 253 274 291 285 275 271 278 282 281 282 283 290 284 281 282 286 290 291 290 284 279 280 283 283 280 277 268 259 263
190 185 179 206 204 194 200 216 219 237 246 199 182 193 193 175 195 212 230 235 242 248 258 261 263 264 262 245 231 245 258 253 233 217 192 196 242 250 253 252 254 255 261 263 260 194 203 223 229 238 245 248 243 247 253 254 247 233 253 264 273 280 281 285 288 289 290 291 287 285 281 283 293 288 285 285 283 277 281 283 285 281 278 268 261
191 179 181 204 212 195 194 217 232 249 264 213 164 183 178 174 190 217 231 243 249 257 259 263 262 266 266 234 221 241 252 254 268 176 176 204 244 250 254 260 260 263 268 278 275 280 264 238 238 236 240 232 235 245 250 231 233 223 226 250 266 271 283 290 291 293 289 282 290 301 289 290 290 288 290 292 287 284 284 283 277 274 275 278 284